• In Romania
  • List of Countries
  • For 7 days
  • Water Temperature
  • Satellite Maps
  • Weather Map
  • Weather Widgets
  • user-avatar
    Login

    Hourly Weather Ali Bayramli

    Today, 29 March, Wednesday

    Time Temperature Precipitation Wind Pressure Humidity
    00:00 +5°C° 0 mm 4 mps 760 mmHg 83%
    01:00 +5°C° 0 mm 4 mps 760 mmHg 79%
    02:00 +5°C° 0 mm 4 mps 759 mmHg 75%
    03:00 +4°C° 0 mm 6 mps 759 mmHg 61%
    04:00 +4°C° 0 mm 6 mps 759 mmHg 57%
    05:00 +5°C° 0 mm 6 mps 759 mmHg 53%
    06:00 +5°C° 0 mm 6 mps 759 mmHg 49%
    07:00 +8°C° 0 mm 7 mps 759 mmHg 42%
    08:00 +10°C° 0 mm 8 mps 759 mmHg 35%
    09:00 +13°C° 0 mm 8 mps 760 mmHg 28%
    10:00 +15°C° 0 mm 8 mps 760 mmHg 26%
    11:00 +17°C° 0 mm 7 mps 760 mmHg 25%
    12:00 +19°C° 0 mm 6 mps 760 mmHg 23%
    13:00 +19°C° 0 mm 5 mps 760 mmHg 25%
    14:00 +19°C° 0 mm 5 mps 761 mmHg 26%
    15:00 +19°C° 0 mm 4 mps 761 mmHg 28%
    16:00 +16°C° 0 mm 5 mps 761 mmHg 37%
    17:00 +14°C° 0 mm 6 mps 762 mmHg 47%
    18:00 +11°C° 0 mm 6 mps 763 mmHg 56%
    19:00 +10°C° 0 mm 6 mps 763 mmHg 60%
    20:00 +9°C° 0 mm 5 mps 764 mmHg 65%
    21:00 +8°C° 0 mm 5 mps 765 mmHg 69%
    22:00 +8°C° 0 mm 4 mps 766 mmHg 72%
    23:00 +7°C° 0 mm 4 mps 766 mmHg 74%

    Tomorrow, 30 March, Thursday

    Time Temperature Precipitation Wind Pressure Humidity
    00:00 +8°C° 0 mm 3 mps 766 mmHg 77%
    01:00 +8°C° 0 mm 3 mps 767 mmHg 79%
    02:00 +7°C° 0 mm 3 mps 767 mmHg 81%
    03:00 +7°C° 0 mm 2 mps 767 mmHg 83%
    04:00 +7°C° 0 mm 2 mps 767 mmHg 83%
    05:00 +7°C° 0 mm 2 mps 767 mmHg 83%
    06:00 +7°C° 0 mm 2 mps 767 mmHg 83%
    07:00 +9°C° 0 mm 2 mps 767 mmHg 76%
    08:00 +10°C° 0 mm 3 mps 766 mmHg 70%
    09:00 +12°C° 0 mm 4 mps 766 mmHg 63%
    10:00 +13°C° 0 mm 4 mps 765 mmHg 59%
    11:00 +14°C° 0 mm 4 mps 764 mmHg 56%
    12:00 +15°C° 0 mm 4 mps 764 mmHg 52%
    13:00 +17°C° 0 mm 4 mps 763 mmHg 51%
    14:00 +17°C° 0 mm 4 mps 762 mmHg 50%
    15:00 +18°C° 0 mm 4 mps 761 mmHg 48%
    16:00 +17°C° 0 mm 4 mps 761 mmHg 53%
    17:00 +14°C° 0 mm 4 mps 760 mmHg 58%
    18:00 +13°C° 0 mm 3 mps 760 mmHg 63%
    19:00 +12°C° 0 mm 3 mps 760 mmHg 66%
    20:00 +11°C° 0 mm 3 mps 760 mmHg 70%
    21:00 +11°C° 0 mm 3 mps 760 mmHg 74%
    22:00 +10°C° 0 mm 3 mps 760 mmHg 75%
    23:00 +10°C° 0 mm 3 mps 759 mmHg 76%

    Day after tomorrow, 31 March, Friday

    Time Temperature Precipitation Wind Pressure Humidity
    00:00 +10°C° 0 mm 3 mps 759 mmHg 77%
    01:00 +10°C° 0 mm 3 mps 759 mmHg 74%
    02:00 +10°C° 0 mm 3 mps 759 mmHg 71%
    03:00 +10°C° 0 mm 3 mps 759 mmHg 68%
    04:00 +9°C° 0 mm 3 mps 760 mmHg 65%
    05:00 +9°C° 0 mm 3 mps 760 mmHg 63%
    06:00 +9°C° 0 mm 3 mps 760 mmHg 60%
    07:00 +11°C° 0 mm 3 mps 761 mmHg 53%
    08:00 +14°C° 0 mm 3 mps 761 mmHg 45%
    09:00 +17°C° 0 mm 3 mps 762 mmHg 38%
    10:00 +18°C° 0 mm 4 mps 762 mmHg 37%
    11:00 +19°C° 0 mm 5 mps 762 mmHg 37%
    12:00 +20°C° 0 mm 7 mps 763 mmHg 37%
    13:00 +18°C° 0 mm 8 mps 763 mmHg 40%
    14:00 +18°C° 0 mm 9 mps 763 mmHg 44%
    15:00 +17°C° 0 mm 10 mps 763 mmHg 47%
    16:00 +14°C° 0 mm 11 mps 764 mmHg 51%
    17:00 +12°C° 0 mm 11 mps 764 mmHg 55%
    18:00 +9°C° 0 mm 11 mps 765 mmHg 60%
    19:00 +8°C° 0 mm 11 mps 766 mmHg 60%
    20:00 +7°C° 0 mm 11 mps 767 mmHg 61%
    21:00 +7°C° 0 mm 11 mps 768 mmHg 62%
    22:00 +6°C° 0.6 mm 10 mps 768 mmHg 66%
    23:00 +5°C° 0.6 mm 9 mps 768 mmHg 70%

    1 April, Saturday

    Time Temperature Precipitation Wind Pressure Humidity
    00:00 +5°C° 0.6 mm 8 mps 768 mmHg 74%
    01:00 +5°C° 0.2 mm 8 mps 768 mmHg 75%
    02:00 +4°C° 0.2 mm 8 mps 768 mmHg 75%
    03:00 +4°C° 0.2 mm 8 mps 768 mmHg 76%
    04:00 +4°C° 0.4 mm 7 mps 768 mmHg 77%
    05:00 +4°C° 0.4 mm 7 mps 768 mmHg 77%
    06:00 +4°C° 0.4 mm 7 mps 768 mmHg 77%
    07:00 +4°C° 0.4 mm 7 mps 768 mmHg 76%
    08:00 +4°C° 0.4 mm 6 mps 769 mmHg 75%
    09:00 +4°C° 0.4 mm 6 mps 769 mmHg 73%
    10:00 +6°C° 0.1 mm 5 mps 768 mmHg 70%
    11:00 +7°C° 0.1 mm 5 mps 768 mmHg 67%
    12:00 +8°C° 0.1 mm 4 mps 767 mmHg 63%
    13:00 +8°C° 0 mm 4 mps 766 mmHg 62%
    14:00 +9°C° 0 mm 3 mps 766 mmHg 61%
    15:00 +10°C° 0 mm 3 mps 765 mmHg 60%
    16:00 +9°C° 0 mm 3 mps 765 mmHg 63%
    17:00 +9°C° 0 mm 3 mps 765 mmHg 65%
    18:00 +8°C° 0 mm 3 mps 765 mmHg 67%
    19:00 +8°C° 0 mm 2 mps 765 mmHg 70%
    20:00 +7°C° 0 mm 2 mps 766 mmHg 73%
    21:00 +8°C° 0 mm 1 mps 766 mmHg 76%
    22:00 +7°C° 0 mm 1 mps 766 mmHg 78%
    23:00 +7°C° 0 mm 1 mps 765 mmHg 80%

    2 April, Sunday

    Time Temperature Precipitation Wind Pressure Humidity
    00:00 +6°C° 0 mm 1 mps 765 mmHg 82%
    01:00 +6°C° 0 mm 1 mps 765 mmHg 82%
    02:00 +6°C° 0 mm 1 mps 765 mmHg 83%
    03:00 +5°C° 0 mm 2 mps 764 mmHg 83%
    04:00 +6°C° 0 mm 1 mps 765 mmHg 83%
    05:00 +6°C° 0 mm 1 mps 765 mmHg 83%
    06:00 +6°C° 0 mm 1 mps 765 mmHg 83%
    07:00 +7°C° 0 mm 1 mps 765 mmHg 76%
    08:00 +9°C° 0 mm 1 mps 766 mmHg 70%
    09:00 +10°C° 0 mm 1 mps 766 mmHg 64%
    10:00 +10°C° 0.1 mm 2 mps 766 mmHg 62%
    11:00 +12°C° 0.1 mm 2 mps 766 mmHg 59%
    12:00 +12°C° 0.1 mm 3 mps 766 mmHg 56%
    13:00 +12°C° 0 mm 3 mps 765 mmHg 55%
    14:00 +13°C° 0 mm 4 mps 765 mmHg 54%
    15:00 +13°C° 0 mm 4 mps 765 mmHg 52%
    16:00 +12°C° 0 mm 4 mps 766 mmHg 56%
    17:00 +10°C° 0 mm 5 mps 766 mmHg 59%
    18:00 +9°C° 0 mm 5 mps 766 mmHg 62%
    19:00 +8°C° 0 mm 5 mps 767 mmHg 64%
    20:00 +7°C° 0 mm 5 mps 767 mmHg 66%
    21:00 +6°C° 0 mm 4 mps 768 mmHg 68%
    22:00 +6°C° 0 mm 4 mps 768 mmHg 68%
    23:00 +5°C° 0 mm 4 mps 768 mmHg 68%

    3 April, Monday

    Time Temperature Precipitation Wind Pressure Humidity
    00:00 +5°C° 0 mm 4 mps 768 mmHg 68%
    01:00 +5°C° 0 mm 4 mps 768 mmHg 70%
    02:00 +5°C° 0 mm 4 mps 768 mmHg 72%
    03:00 +5°C° 0 mm 4 mps 768 mmHg 73%
    04:00 +4°C° 0 mm 3 mps 769 mmHg 75%
    05:00 +4°C° 0 mm 3 mps 769 mmHg 77%
    06:00 +4°C° 0 mm 3 mps 769 mmHg 79%
    07:00 +7°C° 0 mm 3 mps 769 mmHg 70%
    08:00 +8°C° 0 mm 2 mps 769 mmHg 62%
    09:00 +10°C° 0 mm 2 mps 769 mmHg 54%
    10:00 +12°C° 0 mm 2 mps 769 mmHg 50%
    11:00 +13°C° 0 mm 2 mps 769 mmHg 46%
    12:00 +14°C° 0 mm 2 mps 768 mmHg 42%
    13:00 +15°C° 0 mm 2 mps 768 mmHg 42%
    14:00 +14°C° 0 mm 3 mps 767 mmHg 41%
    15:00 +14°C° 0 mm 3 mps 767 mmHg 41%
    16:00 +13°C° 0 mm 3 mps 767 mmHg 46%
    17:00 +12°C° 0 mm 3 mps 767 mmHg 51%
    18:00 +11°C° 0 mm 4 mps 767 mmHg 57%
    19:00 +10°C° 0 mm 3 mps 767 mmHg 62%
    20:00 +9°C° 0 mm 2 mps 767 mmHg 67%
    21:00 +8°C° 0 mm 2 mps 767 mmHg 72%
    22:00 +7°C° 0 mm 2 mps 767 mmHg 74%
    23:00 +8°C° 0 mm 1 mps 767 mmHg 77%
    Show more